Terminal Aerodrome Forecast
Issued by NWS Houston/Galveston, TX

Home | Current Version | Previous Version | Text Only | Print | Product List | Glossary On
Versions: 1 2 3 4 5 6 7 8 9 10 11 12 13 14 15 16 17 18 19 20 21 22 23 24 25 26 27 28 29 30 31 32 33 34 35 36 37 38 39 40 41 42
000
FTUS44 KHGX 271437 AAB
TAFCLL
TAF AMD
KCLL 271437Z 2715/2812 32015KT 3SM BR VCSH SCT003 OVC010
      TEMPO 2715/2717 -RA BKN003
     FM271800 34015KT P6SM VCTS BKN012CB
     FM272200 32008KT P6SM VCSH BKN015
     FM281000 34012G20KT P6SM -DZ BKN012=

USA.gov is the U.S. government's official web portal to all federal, state and local government web resources and services.